STARLINK-1329, 45531

Orbit data source: Space-Track

STARLINK-1329, 45531 is a payload satellite owned by SpaceX/Seattle (US) in LEO that was launched on Wed, 22 Apr 2020 UTC via an FALCON 9 launch vehicle from the Air Force Eastern Test Range (AFETR). Payload-class satellites include a variety of spacecraft equipped with specific instruments for various scientific and technological missions. These include communications satellites like Starlink; space stations such as the ISS; scientific satellites like the Hubble; Earth observation satellites from companies like Planet Labs, Umbra, and HawkEye 360; GPS; miniature CubeSats for education and research; and military/defense satellites.

Loading next visibility...
Identifier
45531, 2020-025A
Orbit
LEO
Country
Flag of USUS
Related business
Manufacturer
SpaceX/Seattle
Mission
Partially operational Commercial Communications
Bus & Motor
STARLINK, Unknown motor
Mass
260 kg wet, ~248 kg dry
Launch date (UTC)
2020-04-22 (6 years ago)
Launch vehicle
FALCON 9
Launch site
Air Force Eastern Test Range (AFETR)
Object type
Payload
Rocket body
Debris
Shape & HBR
Box + 1 Pan, 10.1 m
Radar Cross Section
13.562 m², Large (>1 m²)

Expand to show TLE details & history
Last TLE update: 4 hours ago

TLE from 4 hours ago
0 STARLINK-1329
1 45531U 20025A   26125.29426191  .00073748  00000-0  61888-3 0  9990
2 45531  53.0416 163.6280 0004869  28.4827 331.6455 15.69272646334312
Epoch: 2026-05-05T07:03Z
TLE epoch observation values (Epoch: 2026-05-05T07:03:44.229Z)
Latitude
0.00005°
Longitude
-165.47742°
Altitude
358.993 km
Speed
7.697 km/s
True Right ascension
10h 54m 30s
True Declination
0° 00' 00"
Sunlit
Object was in full shadow at epoch
Visualization orbit readout
Latitude
Unknown
Longitude
Unknown
Altitude
Unknown
Speed
Unknown
Apparent Right ascension
Unknown
Apparent Declination
Unknown
Sunlit
N/A
Visualization observer readout
Local Sidereal Time
18:38:39
Azimuth
Unknown
Elevation
Unknown
Doppler factor
Unknown
Orbital elements
Apogee altitude
364.54 km
Perigee altitude
357.977 km
Semi-major axis
6,739.396 km
Eccentricity
0.00049
Inclination
53.0416°
RAAN
163.628°
Arg. of periapsis
28.4827°
True anomaly
331.61899°
Mean anomaly
331.6455°
Eccentric anomaly
331.63225°
Mean motion
3.92294 °/min
Orbital period
91.77 mins
BSTAR
0.00061888
Loading maneuver chart data...
Computing Atmospheric mass density...
Loading historical data...
Loading historical data...
Loading historical data...
Loading historical data...
Loading historical data...
Loading historical data...
Loading historical data...

Documentation

Showing up to 5 results
|